Vertical_Velocity
4 0 -2 -1 -3 -1 -0 1 4 -3 -1 1 1 -7 11 8 3 12 5 -3 -6 1
8 5 3 2 0 -2 -1 -1 2 1 -3 0 1 -2 -5 -15 10 20 12 3 -0 3
-5 -1 -2 -1 -2 -1 2 0 3 4 -1 -3 -1 0 2 6 3 -8 3 4 3 -10
-0 -1 0 0 3 1 1 -2 -6 2 2 -2 -6 -3 -3 -3 4 11 1 11 4 -7
2 1 -1 -2 0 1 -0 -1 -3 0 0 4 -1 1 -2 -1 -1 -1 1 9 -0 4
1 0 -1 -2 -2 -3 -2 3 -5 -6 -10 -5 -3 2 2 -4 -3 -1 -0 0 3 1
3 -0 -2 -0 -2 0 -0 4 -0 -2 -2 -4 -4 -2 -4 0 1 -3 -0 3 5 -12
-0 -0 -1 -1 4 1 -18 4 2 -2 -4 -7 5 32 7 -2 -10 -1 12 -9 8 0
-1 -0 3 5 -2 -2 -1 0 -7 -5 -14 6 6 5 -2 -3 3 7 3 18 15 -16
2 -3 -2 11 -3 -0 11 23 14 8 27 12 3 13 6 34 11 23 20 3 33 53
14 9 17 8 4 6 3 16 11 12 23 20 15 13 13 12 7 7 -1 -5 2 -6
16 4 9 -3 -5 -1 4 18 23 16 6 -7 -8 -14 -8 -7 -9 -9 -14 -6 -8 -7
2 -2 3 10 11 13 10 5 -0 -2 2 0 -1 -4 -2 -3 -3 3 -1 -2 -4 -4
1 -0 -1 -3 -2 -2 -0 1 4 6 5 3 2 1 5 5 4 5 2 3 10 3
Height
2997 3003 3009 3015 3022 3028 3033 3039 3045 3049 3056 3063 3069 3074 3077 3083 3089 3093 3097 3104 3110 3115
2989 2995 3000 3007 3013 3018 3024 3030 3035 3038 3043 3050 3056 3061 3066 3073 3077 3083 3087 3094 3101 3104
2984 2988 2994 2999 3005 3011 3017 3021 3026 3030 3032 3037 3044 3049 3055 3060 3069 3075 3078 3085 3091 3094
2980 2985 2989 2994 2999 3004 3009 3014 3018 3022 3025 3028 3033 3038 3043 3050 3059 3065 3069 3076 3079 3085
2973 2976 2980 2984 2990 2995 2999 3003 3008 3011 3014 3019 3024 3029 3032 3039 3047 3053 3058 3066 3071 3078
2965 2968 2972 2976 2980 2984 2989 2992 2997 3000 3005 3009 3015 3019 3024 3030 3037 3045 3054 3060 3065 3068
2961 2961 2964 2968 2972 2977 2981 2984 2987 2991 2995 2999 3007 3012 3018 3023 3028 3036 3045 3049 3054 3060
2954 2955 2958 2961 2967 2972 2975 2978 2981 2984 2985 2993 2997 3002 3010 3016 3022 3031 3035 3041 3045 3049
2948 2949 2952 2957 2965 2967 2971 2973 2975 2976 2978 2986 2994 3001 3006 3009 3016 3023 3028 3031 3034 3042
2942 2944 2949 2953 2961 2963 2968 2972 2971 2971 2975 2984 2989 2996 3003 3008 3011 3015 3019 3025 3030 3032
2952 2950 2950 2955 2960 2965 2968 2971 2974 2975 2980 2986 2990 2995 3000 3003 3009 3013 3016 3020 3023 3026
2964 2963 2961 2960 2967 2967 2971 2972 2976 2978 2982 2987 2990 2994 2998 3002 3005 3008 3011 3014 3017 3018
2974 2974 2974 2973 2975 2975 2977 2978 2980 2982 2984 2987 2989 2992 2994 2996 2999 3002 3005 3007 3008 3008
2979 2979 2979 2979 2980 2981 2981 2982 2983 2983 2985 2987 2988 2990 2992 2993 2995 2996 2997 2998 2998 2999